Regional Weather Roundup
Issued by NWS Upton, NY

Current Version | Previous Version | Graphics & Text | Print | Product List | Glossary Off
Versions: 1 2 3 4 5 6 7 8 9 10 11 12 13 14 15 16 17 18 19 20 21 22 23 24 25 26 27 28 29 30 31 32 33 34 35 36 37 38 39 40 41 42 43 44 45 46 47 48 49 50

000
ASUS41 KOKX 271907
RWROKX

REGIONAL WEATHER ROUNDUP
NATIONAL WEATHER SERVICE NEW YORK NY
300 PM EDT FRI MAR 27 2015

NOTE: "FAIR" INDICATES FEW OR NO CLOUDS BELOW 12,000 FEET WITH NO
SIGNIFICANT WEATHER AND/OR OBSTRUCTIONS TO VISIBILITY.

NYZ071-072-176-178-NJZ106-104-272000-
NEW YORK CITY METRO AREA


CITY           SKY/WX    TMP DP  RH WIND       PRES   REMARKS
CENTRAL PARK   CLOUDY    44  32  62 VRB6      29.75S
LAGUARDIA APRT CLOUDY    45  32  60 N9        29.72F
KENNEDY INTL   CLOUDY    47  33  58 N12       29.73F
NEWARK/LIBERTY CLOUDY    46  31  55 NW12      29.73F
BRNX BOT. GARD   N/A     45  32  61 N5        29.74R
TETERBORO      CLOUDY    45  32  60 NW9       29.72F
$$

NYZ177-179-078>081-272000-
LONG ISLAND NEW YORK

CITY           SKY/WX    TMP DP  RH WIND       PRES   REMARKS
FARMINGDALE    CLOUDY    45  33  63 N8        29.72F
ISLIP          LGT RAIN  43  34  70 NW9       29.69F
SHIRLEY        LGT RAIN  43  37  79 N6        29.72S
WESTHAMPTON    LGT RAIN  42  37  82 NW8       29.72S
MONTAUK POINT    N/A     41  37  86 N5        29.71S
$$

NYZ052-065-067-272000-
HUDSON VALLEY

CITY           SKY/WX    TMP DP  RH WIND       PRES   REMARKS
WHITE PLAINS   CLOUDY    44  32  62 NW14      29.71S
NEWBURGH       CLOUDY    43  32  65 N7        29.73S
MONTGOMERY     CLOUDY    44  27  51 NW7       29.70F
POUGHKEEPSIE   CLOUDY    45  32  60 NW6       29.72S
ALBANY         PTSUNNY   43  27  53 W13       29.74S
$$

NJZ001-105-106-008-010-013-015-019>022-104-272000-
NEW JERSEY

CITY           SKY/WX    TMP DP  RH WIND       PRES   REMARKS
NEWARK/LIBERTY CLOUDY    46  31  55 NW12      29.73F
TETERBORO      CLOUDY    45  32  60 NW9       29.72F
CALDWELL       CLOUDY    44  29  55 N7        29.74S
MORRISTOWN     CLOUDY    45  30  57 N5        29.74F
SOMERVILLE     PTSUNNY   45  28  51 NW9       29.75R
SUSSEX         CLOUDY    42  29  59 N8        29.74S
ANDOVER          N/A     41  28  60 N8        29.74R
TRENTON        PTSUNNY   44  29  55 NW9       29.75R
MILLVILLE      CLOUDY    43  38  82 NW5       29.75F
ATLANTIC CITY  CLOUDY    41  37  86 NW6       29.75S
WRIGHTSTOWN    PTSUNNY   44  34  66 NW9       29.73R
TOMS RIVER     CLOUDY    45  37  76 NW8       29.75R
BELMAR         CLOUDY    45  34  65 NW7       29.73R
$$

PAZ047>061-062-071-272000-
EASTERN PENNSYLVANIA

CITY           SKY/WX    TMP DP  RH WIND       PRES   REMARKS
PHILADELPHIA   CLOUDY    46  30  53 N12G20    29.75F
ALLENTOWN      CLOUDY    44  28  53 N12       29.77S
SCRANTON       CLOUDY    41  25  53 N9        29.75F
$$

CTZ002-004>006-009-010-012-RIZ004-006-007-MAZ004-011-015-272000-
SOUTHERN NEW ENGLAND
 IN CT

CITY           SKY/WX    TMP DP  RH WIND       PRES   REMARKS
BRADLEY INTL   CLOUDY    45  33  63 NW5       29.70S
HARTFORD       CLOUDY    44  34  67 VRB6      29.71S
DANBURY        CLOUDY    43  29  57 NW9       29.72S
WTRBRY/OXFORD  CLOUDY    41  28  60 N9        29.70F
BRIDGEPORT     CLOUDY    46  34  62 N6        29.71F
MERIDEN        CLOUDY    44  32  62 NW8       29.71S
NEW HAVEN      CLOUDY    45  34  65 NW6       29.71S
CHESTER        CLOUDY    43  36  75 N8        29.70S
GROTON         CLOUDY    44  38  79 N7        29.70R
WILLIMANTIC    CLOUDY    44  35  70 NW7       29.70S

 IN RI

CITY           SKY/WX    TMP DP  RH WIND       PRES   REMARKS
PROVIDENCE     CLOUDY    42  38  85 NE8       29.69F
BLOCK ISLAND   CLOUDY    43  37  81 NE6       29.69R
WESTERLY       CLOUDY    43  38  82 N5        29.70R

 IN MA

CITY           SKY/WX    TMP DP  RH WIND       PRES   REMARKS
BOSTON         CLOUDY    41  37  87 E6        29.70S
WORCESTER      CLOUDY    40  35  83 CALM      29.66F
WESTFIELD      CLOUDY    43  32  65 NW8       29.70R
PROVINCETOWN   PTSUNNY   39  36  87 N7        29.69F WCI  34
NANTUCKET      CLOUDY    41  38  89 N13       29.65R
$$

ANZ330-335-338-340-345-350-353-355-272000-
COASTAL MARINE OBSERVATIONS


STATION/POSITION TIME  SKY/WX   TEMP    WIND        PRES    VSBY  WAVE
                                AIR SEA DIR/SP/G                  HT/PER
                 (UTC)          (F)     (DEG/KT/KT) (MB)    (MI)  (FT/S)
NY HARB ENTRANCE 1850            41 38  300/  4/  6 1006.4          3/10
4S FIRE IS       1803               36                N/A           5/12
20S FIRE ISLAND  1750               38              1006.7          5/11
23SW MTP         1850                                 N/A           7/10
HUDSON CANYON    NOT AVBL
EXECUTION ROCKS  NOT AVBL
WESTERN LI SOUND NOT AVBL
CENTRAL LI SOUND NOT AVBL
EASTERN LI SOUND NOT AVBL
ROBBINS REEF     1800            44     340/  8/ 11 1005.8
$$


>>>>>>>>>>>>>>>>>>>>>>>>>>>> KEY <<<<<<<<<<<<<<<<<<<<<<<<<<<
>                                                          <
>     SKY/WX - SKY CONDITION/PRESENT WEATHER               <
>     TMP    - TEMPERATURE IN FAHRENHEIT                   <
>     DP     - DEWPOINT IN FAHRENHEIT                      <
>     RH     - RELATIVE HUMIDITY IN PERCENT                <
>     WIND   - DIRECTION AND SPEED IN MPH                  <
>     PRES   - MEAN SEA LEVEL PRESSURE IN INCHES OF HG     <
>     WCI    - WIND CHILL INDEX                            <
>     VSB    - VISIBILITY IN MILES                         <
>     HX     - HEAT INDEX                                  <
>     TC     - TEMPERATURE IN CELSIUS                      <
>     VRB    - VARIABLE WIND DIRECTION                     <
>                                                          <
>>>>>>>>>>>>>>>>>>>>>>>>>>>> KEY <<<<<<<<<<<<<<<<<<<<<<<<<<<





USA.gov is the U.S. government's official web portal to all federal, state and local government web resources and services.